Location: Bord�res
(43.2000°N, 0.2167°W)
Time: 11:55:20
(UTC+00:00)

Cosmos 2278 Rocket - Pass Details

Date: 03 March 2021
Orbit: 842 x 845 km, 71.0° (Epoch: 20 April)

Event Time Altitude Azimuth Distance (km) Brightness Sun altitude
Rises 20:23:46 0° 339° (NNW) 3,413 5.9 -28.0°
Reaches altitude 10° 20:26:19 10° 344° (NNW) 2,474 5.0 -28.4°
Enters shadow 20:30:12 39° 13° (NNE) 1,249 3.0 -29.1°
